Location: Jaite
(41.2884°N, 81.5737°W)
Time: 04:46:23
(UTC+00:00)

Helios 1A Rocket - Pass Details

Date: 15 November 2025
Orbit: 440 x 453 km, 98.3° (Epoch: 04 December)

Event Time Altitude Azimuth Distance (km) Brightness Sun altitude
Rises 10:37:52 0° 161° (SSE) 2,433 6.5 -18.2°
Reaches altitude 10° 10:39:53 10° 159° (SSE) 1,564 5.5 -17.9°
Maximum altitude 10:43:13 71° 76° (ENE) 474 2.6 -17.2°
Drops below altitude 10° 10:46:33 10° 351° (N) 1,568 4.9 -16.6°
Enters shadow 10:46:42 - 351° (N) 1,627 5.0 -16.6°
